Tracking 22130 objects as of 21-Jan-2021
HD Live streaming from Space Station
objects crossing your sky now

STARLINK-1926

Track STARLINK-1926 now!
10-day predictions
STARLINK-1926 is classified as:


NORAD ID: 46757
Int'l Code: 2020-074U
Perigee: 553.4 km
Apogee: 555.4 km
Inclination: 53.1 °
Period: 95.6 minutes
Semi major axis: 6925 km
RCS: Unknown
Launch date: October 24, 2020
Source: United States (US)
Launch site: AIR FORCE EASTERN TEST RANGE (AFETR)
aabbcc
Your satellite tracking list
Your tracking list is empty




NASA's NSSDC Master Catalog

Two Line Element Set (TLE):
1 46757U 20074U   21021.58335648  .00028725  00000-0  19407-2 0  9997
2 46757  53.0534  95.3320 0001480  46.4915 263.4865 15.06376516  1752
Source of the keplerian elements: AFSPC